• In France
  • List of Countries
  • For 7 days
  • Water Temperature
  • Satellite Maps
  • Weather Map
  • Weather Widgets
  • user-avatar
    Login

    Hourly Weather Artashat

    Today, 19 January, Friday

    Time Temperature Precipitation Wind Pressure Humidity
    00:00 -8°C° 0 mm 3 mps 590 mmHg 71%
    01:00 -9°C° 0 mm 3 mps 590 mmHg 71%
    02:00 -9°C° 0 mm 3 mps 590 mmHg 71%
    03:00 -8°C° 0 mm 2 mps 589 mmHg 76%
    04:00 -8°C° 0 mm 2 mps 589 mmHg 75%
    05:00 -8°C° 0 mm 2 mps 590 mmHg 74%
    06:00 -8°C° 0 mm 2 mps 590 mmHg 74%
    07:00 -7°C° 0 mm 2 mps 590 mmHg 75%
    08:00 -7°C° 0 mm 2 mps 591 mmHg 76%
    09:00 -5°C° 0 mm 2 mps 591 mmHg 75%
    10:00 -4°C° 0 mm 2 mps 591 mmHg 76%
    11:00 -3°C° 0 mm 2 mps 592 mmHg 77%
    12:00 -2°C° 0 mm 3 mps 592 mmHg 78%
    13:00 -1°C° 0 mm 2 mps 592 mmHg 77%
    14:00 -1°C° 0 mm 2 mps 592 mmHg 77%
    15:00 -1°C° 0 mm 2 mps 593 mmHg 77%
    16:00 -2°C° 0 mm 2 mps 593 mmHg 78%
    17:00 -3°C° 0 mm 2 mps 593 mmHg 78%
    18:00 -4°C° 0 mm 2 mps 593 mmHg 79%
    19:00 -2°C° 0 mm 1 mps 593 mmHg 80%
    20:00 -2°C° 0 mm 1 mps 593 mmHg 80%
    21:00 -3°C° 0 mm 1 mps 593 mmHg 80%
    22:00 -5°C° 0.1 mm 2 mps 593 mmHg 80%
    23:00 -5°C° 0.1 mm 2 mps 593 mmHg 79%

    Tomorrow, 20 January, Saturday

    Time Temperature Precipitation Wind Pressure Humidity
    00:00 -6°C° 0.1 mm 3 mps 594 mmHg 79%
    01:00 -6°C° 0.1 mm 3 mps 594 mmHg 79%
    02:00 -6°C° 0.1 mm 2 mps 594 mmHg 80%
    03:00 -6°C° 0.1 mm 2 mps 594 mmHg 80%
    04:00 -6°C° 0 mm 2 mps 595 mmHg 79%
    05:00 -6°C° 0 mm 2 mps 595 mmHg 79%
    06:00 -6°C° 0 mm 2 mps 596 mmHg 78%
    07:00 -6°C° 0 mm 2 mps 596 mmHg 76%
    08:00 -6°C° 0 mm 2 mps 597 mmHg 73%
    09:00 -5°C° 0 mm 2 mps 598 mmHg 71%
    10:00 -4°C° 0 mm 2 mps 598 mmHg 69%
    11:00 -3°C° 0 mm 2 mps 599 mmHg 67%
    12:00 -2°C° 0 mm 2 mps 599 mmHg 65%
    13:00 -2°C° 0 mm 2 mps 599 mmHg 65%
    14:00 0°C° 0 mm 1 mps 599 mmHg 65%
    15:00 0°C° 0 mm 1 mps 599 mmHg 65%
    16:00 -1°C° 0 mm 1 mps 599 mmHg 66%
    17:00 -3°C° 0 mm 1 mps 599 mmHg 67%
    18:00 -4°C° 0 mm 1 mps 599 mmHg 68%
    19:00 -4°C° 0 mm 1 mps 599 mmHg 68%
    20:00 -7°C° 0 mm 2 mps 600 mmHg 67%
    21:00 -7°C° 0 mm 2 mps 600 mmHg 67%
    22:00 -8°C° 0 mm 2 mps 600 mmHg 66%
    23:00 -8°C° 0 mm 2 mps 600 mmHg 65%

    Day after tomorrow, 21 January, Sunday

    Time Temperature Precipitation Wind Pressure Humidity
    00:00 -8°C° 0 mm 2 mps 600 mmHg 65%
    01:00 -8°C° 0 mm 2 mps 600 mmHg 64%
    02:00 -8°C° 0 mm 2 mps 600 mmHg 63%
    03:00 -8°C° 0 mm 2 mps 600 mmHg 63%
    04:00 -8°C° 0 mm 2 mps 600 mmHg 62%
    05:00 -8°C° 0 mm 2 mps 600 mmHg 61%
    06:00 -8°C° 0 mm 2 mps 600 mmHg 60%
    07:00 -7°C° 0 mm 2 mps 600 mmHg 59%
    08:00 -7°C° 0 mm 2 mps 601 mmHg 58%
    09:00 -6°C° 0 mm 2 mps 601 mmHg 57%
    10:00 -4°C° 0 mm 2 mps 601 mmHg 57%
    11:00 -3°C° 0 mm 2 mps 601 mmHg 57%
    12:00 -2°C° 0 mm 2 mps 601 mmHg 58%
    13:00 -1°C° 0 mm 2 mps 601 mmHg 57%
    14:00 -1°C° 0 mm 2 mps 601 mmHg 57%
    15:00 -1°C° 0 mm 2 mps 601 mmHg 56%
    16:00 -2°C° 0 mm 2 mps 600 mmHg 56%
    17:00 -4°C° 0 mm 2 mps 600 mmHg 55%
    18:00 -5°C° 0 mm 2 mps 600 mmHg 55%
    19:00 -5°C° 0 mm 2 mps 600 mmHg 53%
    20:00 -6°C° 0 mm 2 mps 600 mmHg 51%
    21:00 -6°C° 0 mm 2 mps 599 mmHg 49%
    22:00 -6°C° 0 mm 2 mps 599 mmHg 48%
    23:00 -6°C° 0 mm 2 mps 599 mmHg 47%

    22 January, Monday

    Time Temperature Precipitation Wind Pressure Humidity
    00:00 -6°C° 0 mm 2 mps 599 mmHg 46%
    01:00 -6°C° 0 mm 2 mps 598 mmHg 46%
    02:00 -6°C° 0 mm 2 mps 598 mmHg 46%
    03:00 -6°C° 0 mm 2 mps 598 mmHg 46%
    04:00 -6°C° 0 mm 2 mps 597 mmHg 46%
    05:00 -6°C° 0 mm 2 mps 597 mmHg 45%
    06:00 -6°C° 0 mm 2 mps 597 mmHg 45%
    07:00 -5°C° 0 mm 2 mps 597 mmHg 45%
    08:00 -2°C° 0 mm 1 mps 597 mmHg 45%
    09:00 -2°C° 0 mm 1 mps 597 mmHg 45%
    10:00 0°C° 0 mm 1 mps 597 mmHg 47%
    11:00 +1°C° 0 mm 1 mps 597 mmHg 48%
    12:00 +1°C° 0 mm 2 mps 597 mmHg 49%
    13:00 +1°C° 0 mm 2 mps 596 mmHg 49%
    14:00 +1°C° 0 mm 2 mps 596 mmHg 48%
    15:00 +1°C° 0 mm 2 mps 595 mmHg 48%
    16:00 -1°C° 0 mm 2 mps 595 mmHg 48%
    17:00 -3°C° 0 mm 2 mps 594 mmHg 47%
    18:00 -5°C° 0 mm 2 mps 594 mmHg 47%
    19:00 -5°C° 0 mm 2 mps 594 mmHg 46%
    20:00 -6°C° 0 mm 2 mps 594 mmHg 45%
    21:00 -6°C° 0 mm 2 mps 594 mmHg 44%
    22:00 -6°C° 0 mm 2 mps 593 mmHg 44%
    23:00 -6°C° 0 mm 2 mps 593 mmHg 44%

    23 January, Tuesday

    Time Temperature Precipitation Wind Pressure Humidity
    00:00 -7°C° 0 mm 2 mps 593 mmHg 44%
    01:00 -7°C° 0 mm 2 mps 593 mmHg 46%
    02:00 -7°C° 0 mm 2 mps 593 mmHg 47%
    03:00 -7°C° 0 mm 2 mps 593 mmHg 49%
    04:00 -7°C° 0 mm 2 mps 593 mmHg 50%
    05:00 -7°C° 0 mm 2 mps 593 mmHg 52%
    06:00 -7°C° 0 mm 2 mps 593 mmHg 54%
    07:00 -7°C° 0 mm 2 mps 593 mmHg 54%
    08:00 -6°C° 0 mm 2 mps 594 mmHg 55%
    09:00 -5°C° 0 mm 2 mps 594 mmHg 55%
    10:00 -4°C° 0 mm 2 mps 594 mmHg 55%
    11:00 -3°C° 0 mm 2 mps 594 mmHg 54%
    12:00 -2°C° 0 mm 2 mps 594 mmHg 53%
    13:00 -2°C° 0 mm 2 mps 593 mmHg 54%
    14:00 -2°C° 0 mm 2 mps 593 mmHg 54%
    15:00 -2°C° 0 mm 2 mps 593 mmHg 55%
    16:00 -3°C° 0 mm 2 mps 592 mmHg 57%
    17:00 -2°C° 0 mm 1 mps 592 mmHg 59%
    18:00 -3°C° 0 mm 1 mps 592 mmHg 61%
    19:00 -3°C° 0 mm 1 mps 592 mmHg 62%
    20:00 -4°C° 0 mm 1 mps 592 mmHg 63%
    21:00 -4°C° 0 mm 1 mps 592 mmHg 63%
    22:00 -4°C° 0 mm 1 mps 592 mmHg 65%
    23:00 -4°C° 0 mm 1 mps 592 mmHg 67%

    24 January, Wednesday

    Time Temperature Precipitation Wind Pressure Humidity
    00:00 -6°C° 0 mm 1 mps 592 mmHg 69%
    01:00 -6°C° 0 mm 1 mps 592 mmHg 70%
    02:00 -6°C° 0 mm 1 mps 592 mmHg 72%
    03:00 -6°C° 0 mm 1 mps 592 mmHg 73%
    04:00 -6°C° 0.2 mm 1 mps 592 mmHg 76%
    05:00 -6°C° 0.2 mm 1 mps 592 mmHg 79%
    06:00 -6°C° 0.2 mm 1 mps 592 mmHg 82%
    07:00 -6°C° 0.2 mm 2 mps 593 mmHg 82%
    08:00 -6°C° 0.2 mm 2 mps 594 mmHg 82%
    09:00 -6°C° 0.2 mm 2 mps 594 mmHg 82%
    10:00 -5°C° 0.2 mm 2 mps 595 mmHg 80%
    11:00 -5°C° 0.2 mm 2 mps 595 mmHg 78%
    12:00 -4°C° 0.2 mm 2 mps 596 mmHg 76%
    13:00 -4°C° 0.1 mm 2 mps 596 mmHg 75%
    14:00 -4°C° 0.1 mm 2 mps 596 mmHg 73%
    15:00 -4°C° 0.1 mm 2 mps 596 mmHg 72%
    16:00 -5°C° 0 mm 2 mps 597 mmHg 74%
    17:00 -4°C° 0 mm 1 mps 597 mmHg 76%
    18:00 -6°C° 0 mm 1 mps 597 mmHg 77%
    19:00 -6°C° 0 mm 1 mps 597 mmHg 77%
    20:00 -7°C° 0 mm 1 mps 597 mmHg 77%
    21:00 -7°C° 0 mm 1 mps 597 mmHg 77%
    22:00 -7°C° 0 mm 1 mps 597 mmHg 77%
    23:00 -8°C° 0 mm 1 mps 598 mmHg 76%
    Show more